Time,TemperatureF,DewpointF,PressureIn,WindDirection,WindDirectionDegrees,WindSpeedMPH,WindSpeedGustMPH,Humidity,HourlyPrecipIn,Conditions,Clouds,dailyrainin,SoftwareType,DateUTC
2013-06-23 00:03:00,70.5,67.1,29.97,South,175,5.0,8.0,89,0.00,,,0.00,Wunderground v.1.15,2013-06-23 05:03:00,
2013-06-23 00:08:00,70.3,67.2,29.97,SSW,199,5.0,8.0,90,0.00,,,0.00,Wunderground v.1.15,2013-06-23 05:08:00,
2013-06-23 00:14:00,70.2,67.1,29.97,South,186,4.0,5.0,90,0.00,,,0.00,Wunderground v.1.15,2013-06-23 05:14:00,
2013-06-23 00:20:00,70.1,67.0,29.97,SSW,211,4.0,4.0,90,0.00,,,0.00,Wunderground v.1.15,2013-06-23 05:20:00,
2013-06-23 00:25:00,69.9,67.2,29.97,SSW,201,4.0,6.0,91,0.00,,,0.00,Wunderground v.1.15,2013-06-23 05:25:00,
2013-06-23 00:31:00,69.8,67.1,29.97,SSW,193,4.0,6.0,91,0.00,,,0.00,Wunderground v.1.15,2013-06-23 05:31:00,
2013-06-23 00:37:00,69.6,66.9,29.97,South,181,5.0,8.0,91,0.00,,,0.00,Wunderground v.1.15,2013-06-23 05:37:00,
2013-06-23 00:43:00,69.5,67.1,29.96,SSW,194,6.0,9.0,92,0.00,,,0.00,Wunderground v.1.15,2013-06-23 05:43:00,
2013-06-23 00:48:00,69.4,67.0,29.96,South,178,6.0,9.0,92,0.00,,,0.00,Wunderground v.1.15,2013-06-23 05:48:00,
2013-06-23 00:54:00,69.2,66.8,29.96,South,184,4.0,6.0,92,0.00,,,0.00,Wunderground v.1.15,2013-06-23 05:54:00,
2013-06-23 01:00:00,69.2,66.8,29.96,South,184,4.0,4.0,92,0.00,,,0.00,Wunderground v.1.15,2013-06-23 06:00:00,
2013-06-23 01:02:00,69.2,66.8,29.96,South,184,3.0,4.0,92,0.00,,,0.00,Wunderground v.1.15,2013-06-23 06:02:00,
2013-06-23 01:07:00,69.1,66.7,29.96,South,184,2.0,4.0,92,0.00,,,0.00,Wunderground v.1.15,2013-06-23 06:07:00,
2013-06-23 01:13:00,69.1,67.0,29.96,South,184,1.0,2.0,93,0.00,,,0.00,Wunderground v.1.15,2013-06-23 06:13:00,
2013-06-23 01:18:00,69.1,67.0,29.96,South,184,0.0,2.0,93,0.00,,,0.00,Wunderground v.1.15,2013-06-23 06:18:00,
2013-06-23 01:24:00,69.0,66.9,29.97,South,184,0.0,0.0,93,0.00,,,0.00,Wunderground v.1.15,2013-06-23 06:24:00,
2013-06-23 01:30:00,68.9,66.8,29.96,South,184,0.0,3.0,93,0.00,,,0.00,Wunderground v.1.15,2013-06-23 06:30:00,
2013-06-23 01:35:00,68.8,66.7,29.96,South,184,1.0,3.0,93,0.00,,,0.00,Wunderground v.1.15,2013-06-23 06:35:00,
2013-06-23 01:41:00,68.8,66.7,29.96,South,184,0.0,1.0,93,0.00,,,0.00,Wunderground v.1.15,2013-06-23 06:41:00,
2013-06-23 01:46:00,68.8,66.7,29.95,South,184,0.0,3.0,93,0.00,,,0.00,Wunderground v.1.15,2013-06-23 06:46:00,
2013-06-23 01:52:00,68.8,66.7,29.95,South,184,2.0,2.0,93,0.00,,,0.00,Wunderground v.1.15,2013-06-23 06:52:00,
2013-06-23 01:57:00,68.7,66.6,29.95,South,184,2.0,3.0,93,0.00,,,0.00,Wunderground v.1.15,2013-06-23 06:57:00,
2013-06-23 02:03:00,68.7,66.6,29.95,South,184,1.0,2.0,93,0.00,,,0.00,Wunderground v.1.15,2013-06-23 07:03:00,
2013-06-23 02:09:00,68.7,66.6,29.96,West,267,1.0,3.0,93,0.00,,,0.00,Wunderground v.1.15,2013-06-23 07:09:00,
2013-06-23 02:14:00,68.6,66.8,29.98,North,5,4.0,11.0,94,0.00,,,0.00,Wunderground v.1.15,2013-06-23 07:14:00,
2013-06-23 02:20:00,69.0,67.2,29.98,NNW,347,9.0,9.0,94,0.00,,,0.00,Wunderground v.1.15,2013-06-23 07:20:00,
2013-06-23 02:25:00,69.2,67.1,29.98,North,5,6.0,9.0,93,0.00,,,0.00,Wunderground v.1.15,2013-06-23 07:25:00,
2013-06-23 02:31:00,69.3,67.2,29.99,NNE,31,5.0,6.0,93,0.00,,,0.00,Wunderground v.1.15,2013-06-23 07:31:00,
2013-06-23 02:36:00,69.3,67.2,29.98,NNE,30,5.0,6.0,93,0.00,,,0.00,Wunderground v.1.15,2013-06-23 07:36:00,
2013-06-23 02:42:00,69.3,67.2,29.99,NE,36,4.0,6.0,93,0.00,,,0.00,Wunderground v.1.15,2013-06-23 07:42:00,
2013-06-23 02:48:00,69.3,67.2,29.98,NE,38,4.0,6.0,93,0.00,,,0.00,Wunderground v.1.15,2013-06-23 07:48:00,
2013-06-23 02:54:00,69.1,66.7,29.98,NE,37,4.0,6.0,92,0.00,,,0.00,Wunderground v.1.15,2013-06-23 07:54:00,
2013-06-23 03:00:00,68.9,66.8,29.98,NE,40,4.0,4.0,93,0.00,,,0.00,Wunderground v.1.15,2013-06-23 08:00:00,
2013-06-23 03:05:00,68.8,66.7,29.97,NE,40,3.0,4.0,93,0.00,,,0.00,Wunderground v.1.15,2013-06-23 08:05:00,
2013-06-23 03:11:00,68.6,66.8,29.97,NE,41,1.0,1.0,94,0.00,,,0.00,Wunderground v.1.15,2013-06-23 08:11:00,
2013-06-23 03:18:00,68.4,66.6,29.96,NE,42,0.0,1.0,94,0.00,,,0.00,Wunderground v.1.15,2013-06-23 08:18:00,
2013-06-23 03:24:00,68.3,66.5,29.96,NE,42,1.0,1.0,94,0.00,,,0.00,Wunderground v.1.15,2013-06-23 08:24:00,
2013-06-23 03:30:00,68.4,66.6,29.95,NE,42,1.0,2.0,94,0.00,,,0.00,Wunderground v.1.15,2013-06-23 08:30:00,
2013-06-23 03:35:00,68.5,66.7,29.95,SE,144,1.0,4.0,94,0.00,,,0.00,Wunderground v.1.15,2013-06-23 08:35:00,
2013-06-23 03:41:00,68.4,66.6,29.95,SE,144,1.0,1.0,94,0.00,,,0.00,Wunderground v.1.15,2013-06-23 08:41:00,
2013-06-23 03:47:00,68.4,66.6,29.95,SE,144,0.0,1.0,94,0.00,,,0.00,Wunderground v.1.15,2013-06-23 08:47:00,
2013-06-23 03:52:00,68.3,66.5,29.96,SE,144,1.0,3.0,94,0.00,,,0.00,Wunderground v.1.15,2013-06-23 08:52:00,
2013-06-23 03:57:00,68.0,66.5,29.95,SE,144,1.0,3.0,95,0.00,,,0.00,Wunderground v.1.15,2013-06-23 08:57:00,
2013-06-23 04:03:00,67.8,66.3,29.95,SE,144,1.0,2.0,95,0.00,,,0.00,Wunderground v.1.15,2013-06-23 09:03:00,
2013-06-23 04:08:00,68.0,66.5,29.95,SE,136,1.0,2.0,95,0.00,,,0.00,Wunderground v.1.15,2013-06-23 09:08:00,
2013-06-23 04:14:00,67.9,66.4,29.95,South,175,3.0,5.0,95,0.00,,,0.00,Wunderground v.1.15,2013-06-23 09:14:00,
2013-06-23 04:19:00,67.9,66.4,29.95,SSE,168,4.0,5.0,95,0.00,,,0.00,Wunderground v.1.15,2013-06-23 09:19:00,
2013-06-23 04:25:00,67.8,66.3,29.95,SSE,168,2.0,4.0,95,0.00,,,0.00,Wunderground v.1.15,2013-06-23 09:25:00,
2013-06-23 04:31:00,67.7,66.2,29.95,SSE,168,1.0,1.0,95,0.00,,,0.00,Wunderground v.1.15,2013-06-23 09:31:00,
2013-06-23 04:37:00,67.9,66.4,29.96,SSE,168,0.0,1.0,95,0.00,,,0.00,Wunderground v.1.15,2013-06-23 09:37:00,
2013-06-23 04:43:00,67.9,66.4,29.97,SSE,168,0.0,0.0,95,0.00,,,0.00,Wunderground v.1.15,2013-06-23 09:43:00,
2013-06-23 04:48:00,67.8,66.3,29.97,SSE,168,0.0,2.0,95,0.00,,,0.00,Wunderground v.1.15,2013-06-23 09:48:00,
2013-06-23 04:53:00,67.7,66.2,29.97,SSE,168,1.0,3.0,95,0.00,,,0.00,Wunderground v.1.15,2013-06-23 09:53:00,
2013-06-23 04:59:00,67.6,66.4,29.97,SSE,168,2.0,4.0,96,0.00,,,0.00,Wunderground v.1.15,2013-06-23 09:59:00,
2013-06-23 05:04:00,67.5,66.3,29.98,SSE,168,2.0,4.0,96,0.00,,,0.00,Wunderground v.1.15,2013-06-23 10:04:00,
2013-06-23 05:10:00,67.5,66.3,29.98,SSE,168,2.0,2.0,96,0.00,,,0.00,Wunderground v.1.15,2013-06-23 10:10:00,
2013-06-23 05:15:00,67.5,66.3,29.98,SSE,168,3.0,5.0,96,0.00,,,0.00,Wunderground v.1.15,2013-06-23 10:15:00,
2013-06-23 05:21:00,67.4,66.2,29.97,SSE,168,3.0,3.0,96,0.00,,,0.00,Wunderground v.1.15,2013-06-23 10:21:00,
2013-06-23 05:26:00,67.4,66.2,29.97,South,184,3.0,5.0,96,0.00,,,0.00,Wunderground v.1.15,2013-06-23 10:26:00,
2013-06-23 05:32:00,67.4,66.2,29.97,South,180,6.0,7.0,96,0.00,,,0.00,Wunderground v.1.15,2013-06-23 10:32:00,
2013-06-23 05:38:00,67.4,66.2,29.97,South,173,5.0,7.0,96,0.00,,,0.00,Wunderground v.1.15,2013-06-23 10:38:00,
2013-06-23 05:44:00,67.4,65.9,29.97,SSE,157,3.0,4.0,95,0.00,,,0.00,Wunderground v.1.15,2013-06-23 10:44:00,
2013-06-23 05:49:00,67.5,66.0,29.98,South,186,3.0,7.0,95,0.00,,,0.00,Wunderground v.1.15,2013-06-23 10:49:00,
2013-06-23 05:55:00,67.6,66.1,29.97,South,180,2.0,3.0,95,0.00,,,0.00,Wunderground v.1.15,2013-06-23 10:55:00,
2013-06-23 06:00:00,67.7,65.9,29.97,South,175,2.0,2.0,94,0.00,,,0.00,Wunderground v.1.15,2013-06-23 11:00:00,
2013-06-23 06:06:00,67.7,65.9,29.97,South,178,3.0,3.0,94,0.00,,,0.00,Wunderground v.1.15,2013-06-23 11:06:00,
2013-06-23 06:11:00,67.8,65.7,29.97,South,187,3.0,3.0,93,0.00,,,0.00,Wunderground v.1.15,2013-06-23 11:11:00,
2013-06-23 06:17:00,67.9,65.8,29.97,SSE,167,3.0,6.0,93,0.00,,,0.00,Wunderground v.1.15,2013-06-23 11:17:00,
2013-06-23 06:23:00,68.1,66.0,29.96,South,186,4.0,6.0,93,0.00,,,0.00,Wunderground v.1.15,2013-06-23 11:23:00,
2013-06-23 06:28:00,68.3,65.9,29.95,South,169,5.0,10.0,92,0.00,,,0.00,Wunderground v.1.15,2013-06-23 11:28:00,
2013-06-23 06:34:00,68.7,66.3,29.95,South,175,7.0,11.0,92,0.00,,,0.00,Wunderground v.1.15,2013-06-23 11:34:00,
2013-06-23 06:40:00,69.2,66.5,29.94,South,169,6.0,7.0,91,0.00,,,0.00,Wunderground v.1.15,2013-06-23 11:40:00,
2013-06-23 06:45:00,69.5,66.4,29.94,South,174,7.0,15.0,90,0.00,,,0.00,Wunderground v.1.15,2013-06-23 11:45:00,
2013-06-23 06:51:00,69.9,66.8,29.94,South,186,9.0,13.0,90,0.00,,,0.00,Wunderground v.1.15,2013-06-23 11:51:00,
2013-06-23 06:56:00,70.0,66.6,29.94,South,181,10.0,13.0,89,0.00,,,0.00,Wunderground v.1.15,2013-06-23 11:56:00,
2013-06-23 07:02:00,70.1,66.7,29.93,SSE,162,10.0,10.0,89,0.00,,,0.00,Wunderground v.1.15,2013-06-23 12:02:00,
2013-06-23 07:07:00,69.9,66.5,29.93,South,178,9.0,10.0,89,0.00,,,0.00,Wunderground v.1.15,2013-06-23 12:07:00,
2013-06-23 07:12:00,69.8,66.7,29.92,SSE,168,9.0,13.0,90,0.00,,,0.00,Wunderground v.1.15,2013-06-23 12:12:00,
2013-06-23 07:18:00,70.0,66.9,29.93,South,169,8.0,13.0,90,0.00,,,0.00,Wunderground v.1.15,2013-06-23 12:18:00,
2013-06-23 07:24:00,70.2,66.8,29.93,South,186,9.0,12.0,89,0.00,,,0.00,Wunderground v.1.15,2013-06-23 12:24:00,
2013-06-23 07:30:00,70.6,67.2,29.93,SSE,165,10.0,11.0,89,0.00,,,0.00,Wunderground v.1.15,2013-06-23 12:30:00,
2013-06-23 07:36:00,71.0,67.3,29.93,SSW,194,10.0,14.0,88,0.00,,,0.00,Wunderground v.1.15,2013-06-23 12:36:00,
2013-06-23 07:42:00,71.4,68.0,29.93,South,182,9.0,10.0,89,0.00,,,0.00,Wunderground v.1.15,2013-06-23 12:42:00,
2013-06-23 07:47:00,71.5,67.4,29.93,SSW,197,10.0,18.0,87,0.00,,,0.00,Wunderground v.1.15,2013-06-23 12:47:00,
2013-06-23 07:53:00,71.9,67.8,29.93,South,191,10.0,14.0,87,0.00,,,0.00,Wunderground v.1.15,2013-06-23 12:53:00,
2013-06-23 07:58:00,72.1,68.0,29.93,South,184,11.0,14.0,87,0.00,,,0.00,Wunderground v.1.15,2013-06-23 12:58:00,
2013-06-23 08:03:00,72.3,67.9,29.93,SSE,163,11.0,12.0,86,0.00,,,0.00,Wunderground v.1.15,2013-06-23 13:03:00,
2013-06-23 08:09:00,72.7,68.3,29.93,South,186,10.0,12.0,86,0.00,,,0.00,Wunderground v.1.15,2013-06-23 13:09:00,
2013-06-23 08:14:00,72.9,68.1,29.93,SSW,198,10.0,13.0,85,0.00,,,0.00,Wunderground v.1.15,2013-06-23 13:14:00,
2013-06-23 08:20:00,73.0,68.2,29.94,South,180,10.0,10.0,85,0.00,,,0.00,Wunderground v.1.15,2013-06-23 13:20:00,
2013-06-23 08:26:00,73.0,68.2,29.93,South,172,11.0,17.0,85,0.00,,,0.00,Wunderground v.1.15,2013-06-23 13:26:00,
2013-06-23 08:31:00,72.9,67.8,29.93,South,191,12.0,15.0,84,0.00,,,0.00,Wunderground v.1.15,2013-06-23 13:31:00,
2013-06-23 08:37:00,73.3,68.5,29.93,SSE,160,11.0,17.0,85,0.00,,,0.00,Wunderground v.1.15,2013-06-23 13:37:00,
2013-06-23 08:43:00,73.5,68.7,29.93,South,186,10.0,11.0,85,0.00,,,0.00,Wunderground v.1.15,2013-06-23 13:43:00,
2013-06-23 08:49:00,73.9,68.8,29.94,South,186,9.0,16.0,84,0.00,,,0.00,Wunderground v.1.15,2013-06-23 13:49:00,
2013-06-23 08:54:00,74.1,68.6,29.94,SSE,160,10.0,13.0,83,0.00,,,0.00,Wunderground v.1.15,2013-06-23 13:54:00,
2013-06-23 09:00:00,74.1,68.6,29.94,SSW,210,11.0,11.0,83,0.00,,,0.00,Wunderground v.1.15,2013-06-23 14:00:00,
2013-06-23 09:05:00,74.3,69.1,29.94,South,169,11.0,13.0,84,0.00,,,0.00,Wunderground v.1.15,2013-06-23 14:05:00,
2013-06-23 09:10:00,74.8,69.3,29.94,SW,215,10.0,12.0,83,0.00,,,0.00,Wunderground v.1.15,2013-06-23 14:10:00,
2013-06-23 09:16:00,75.1,68.9,29.94,SSW,195,9.0,15.0,81,0.00,,,0.00,Wunderground v.1.15,2013-06-23 14:16:00,
2013-06-23 09:22:00,75.4,69.5,29.94,SSW,209,9.0,10.0,82,0.00,,,0.00,Wunderground v.1.15,2013-06-23 14:22:00,
2013-06-23 09:28:00,75.8,69.9,29.94,SSW,202,8.0,12.0,82,0.00,,,0.00,Wunderground v.1.15,2013-06-23 14:28:00,
2013-06-23 09:33:00,76.0,69.4,29.94,South,173,8.0,8.0,80,0.00,,,0.00,Wunderground v.1.15,2013-06-23 14:33:00,
2013-06-23 09:39:00,76.1,69.5,29.94,SSW,205,9.0,13.0,80,0.00,,,0.00,Wunderground v.1.15,2013-06-23 14:39:00,
2013-06-23 09:44:00,76.6,70.0,29.95,SSW,202,9.0,12.0,80,0.00,,,0.00,Wunderground v.1.15,2013-06-23 14:44:00,
2013-06-23 09:50:00,76.8,70.5,29.95,SSW,205,9.0,9.0,81,0.00,,,0.00,Wunderground v.1.15,2013-06-23 14:50:00,
2013-06-23 09:56:00,76.7,70.4,29.94,SSW,193,10.0,18.0,81,0.00,,,0.00,Wunderground v.1.15,2013-06-23 14:56:00,
2013-06-23 10:01:00,77.1,70.5,29.94,SW,216,9.0,9.0,80,0.00,,,0.00,Wunderground v.1.15,2013-06-23 15:01:00,
2013-06-23 10:06:00,77.5,71.6,29.95,SSW,193,8.0,11.0,82,0.00,,,0.00,Wunderground v.1.15,2013-06-23 15:06:00,
2013-06-23 10:11:00,78.0,72.1,29.95,SSW,209,7.0,13.0,82,0.00,,,0.00,Wunderground v.1.15,2013-06-23 15:11:00,
2013-06-23 10:17:00,78.2,70.8,29.95,SSW,205,8.0,13.0,78,0.00,,,0.00,Wunderground v.1.15,2013-06-23 15:17:00,
2013-06-23 10:23:00,78.3,71.6,29.95,South,190,9.0,13.0,80,0.00,,,0.00,Wunderground v.1.15,2013-06-23 15:23:00,
2013-06-23 10:28:00,78.5,71.4,29.95,SSW,209,9.0,13.0,79,0.00,,,0.00,Wunderground v.1.15,2013-06-23 15:28:00,
2013-06-23 10:34:00,78.7,71.6,29.95,South,178,8.0,10.0,79,0.00,,,0.00,Wunderground v.1.15,2013-06-23 15:34:00,
2013-06-23 10:40:00,79.1,72.0,29.95,SW,224,8.0,13.0,79,0.00,,,0.00,Wunderground v.1.15,2013-06-23 15:40:00,
2013-06-23 10:46:00,79.1,72.4,29.95,South,174,9.0,13.0,80,0.00,,,0.00,Wunderground v.1.15,2013-06-23 15:46:00,
2013-06-23 10:51:00,79.5,72.0,29.95,South,175,9.0,9.0,78,0.00,,,0.00,Wunderground v.1.15,2013-06-23 15:51:00,
2013-06-23 10:57:00,79.9,73.5,29.95,South,179,9.0,10.0,81,0.00,,,0.00,Wunderground v.1.15,2013-06-23 15:57:00,
2013-06-23 11:02:00,80.2,73.1,29.95,SW,236,8.0,9.0,79,0.00,,,0.00,Wunderground v.1.15,2013-06-23 16:02:00,
2013-06-23 11:07:00,80.2,72.7,29.95,South,190,8.0,12.0,78,0.00,,,0.00,Wunderground v.1.15,2013-06-23 16:07:00,
2013-06-23 11:12:00,80.6,74.2,29.95,South,175,8.0,8.0,81,0.00,,,0.00,Wunderground v.1.15,2013-06-23 16:12:00,
2013-06-23 11:18:00,80.7,73.2,29.95,SW,221,8.0,13.0,78,0.00,,,0.00,Wunderground v.1.15,2013-06-23 16:18:00,
2013-06-23 11:23:00,80.7,73.2,29.95,SSW,205,8.0,10.0,78,0.00,,,0.00,Wunderground v.1.15,2013-06-23 16:23:00,
2013-06-23 11:29:00,80.8,73.7,29.95,South,180,9.0,15.0,79,0.00,,,0.00,Wunderground v.1.15,2013-06-23 16:29:00,
2013-06-23 11:34:00,81.0,73.1,29.95,SSW,193,9.0,11.0,77,0.00,,,0.00,Wunderground v.1.15,2013-06-23 16:34:00,
2013-06-23 11:40:00,81.3,74.9,29.95,SSW,205,8.0,8.0,81,0.00,,,0.00,Wunderground v.1.15,2013-06-23 16:40:00,
2013-06-23 11:46:00,81.6,74.5,29.94,SSW,198,8.0,14.0,79,0.00,,,0.00,Wunderground v.1.15,2013-06-23 16:46:00,
2013-06-23 11:51:00,81.5,73.2,29.94,South,174,9.0,14.0,76,0.00,,,0.00,Wunderground v.1.15,2013-06-23 16:51:00,
2013-06-23 11:56:00,81.4,73.9,29.94,SSW,211,9.0,14.0,78,0.00,,,0.00,Wunderground v.1.15,2013-06-23 16:56:00,
2013-06-23 11:58:00,81.5,74.4,29.94,SSE,163,9.0,14.0,79,0.00,,,0.00,Wunderground v.1.15,2013-06-23 16:58:00,
2013-06-23 12:00:00,81.5,73.2,29.94,SW,219,9.0,12.0,76,0.00,,,0.00,Wunderground v.1.15,2013-06-23 17:00:00,
2013-06-23 12:03:00,81.7,74.5,29.94,SW,223,9.0,12.0,79,0.00,,,0.00,Wunderground v.1.15,2013-06-23 17:03:00,
2013-06-23 12:05:00,81.9,75.5,29.94,South,188,8.0,12.0,81,0.00,,,0.00,Wunderground v.1.15,2013-06-23 17:05:00,
2013-06-23 12:07:00,82.1,74.9,29.94,SSW,207,8.0,12.0,79,0.00,,,0.00,Wunderground v.1.15,2013-06-23 17:07:00,
2013-06-23 12:12:00,82.7,75.9,29.94,South,181,7.0,11.0,80,0.00,,,0.00,Wunderground v.1.15,2013-06-23 17:12:00,
2013-06-23 12:17:00,82.8,74.5,29.94,South,185,9.0,15.0,76,0.00,,,0.00,Wunderground v.1.15,2013-06-23 17:17:00,
2013-06-23 12:22:00,82.8,74.8,29.94,SSW,205,9.0,13.0,77,0.00,,,0.00,Wunderground v.1.15,2013-06-23 17:22:00,
2013-06-23 12:27:00,83.1,75.9,29.93,SW,232,7.0,13.0,79,0.00,,,0.00,Wunderground v.1.15,2013-06-23 17:27:00,
2013-06-23 12:33:00,83.6,75.2,29.93,South,184,6.0,9.0,76,0.00,,,0.00,Wunderground v.1.15,2013-06-23 17:33:00,
2013-06-23 12:39:00,83.9,76.3,29.93,South,176,7.0,14.0,78,0.00,,,0.00,Wunderground v.1.15,2013-06-23 17:39:00,
2013-06-23 12:44:00,84.3,77.1,29.92,South,187,8.0,8.0,79,0.00,,,0.00,Wunderground v.1.15,2013-06-23 17:44:00,
2013-06-23 12:50:00,84.4,76.8,29.92,South,186,9.0,9.0,78,0.00,,,0.00,Wunderground v.1.15,2013-06-23 17:50:00,
2013-06-23 12:56:00,84.5,75.3,29.92,South,190,8.0,9.0,74,0.00,,,0.00,Wunderground v.1.15,2013-06-23 17:56:00,
2013-06-23 13:01:00,84.5,75.3,29.91,South,190,9.0,13.0,74,0.00,,,0.00,Wunderground v.1.15,2013-06-23 18:01:00,
2013-06-23 13:06:00,84.5,76.1,29.92,SSW,208,9.0,13.0,76,0.00,,,0.00,Wunderground v.1.15,2013-06-23 18:06:00,
2013-06-23 13:12:00,84.7,75.1,29.92,SSW,205,9.0,13.0,73,0.00,,,0.00,Wunderground v.1.15,2013-06-23 18:12:00,
2013-06-23 13:18:00,84.6,76.2,29.92,SSW,200,8.0,13.0,76,0.00,,,0.00,Wunderground v.1.15,2013-06-23 18:18:00,
2013-06-23 13:24:00,84.8,77.2,29.92,SSW,192,7.0,8.0,78,0.00,,,0.00,Wunderground v.1.15,2013-06-23 18:24:00,
2013-06-23 13:30:00,85.5,77.1,29.91,South,176,7.0,10.0,76,0.00,,,0.00,Wunderground v.1.15,2013-06-23 18:30:00,
2013-06-23 13:36:00,85.2,75.6,29.91,SSW,205,8.0,10.0,73,0.00,,,0.00,Wunderground v.1.15,2013-06-23 18:36:00,
2013-06-23 13:41:00,85.1,75.9,29.90,South,183,7.0,7.0,74,0.00,,,0.00,Wunderground v.1.15,2013-06-23 18:41:00,
2013-06-23 13:47:00,85.2,76.0,29.90,SSW,194,7.0,10.0,74,0.00,,,0.00,Wunderground v.1.15,2013-06-23 18:47:00,
2013-06-23 13:52:00,85.3,75.7,29.90,South,180,8.0,11.0,73,0.00,,,0.00,Wunderground v.1.15,2013-06-23 18:52:00,
2013-06-23 13:58:00,85.6,76.4,29.89,SSW,200,8.0,11.0,74,0.00,,,0.00,Wunderground v.1.15,2013-06-23 18:58:00,
2013-06-23 14:03:00,85.4,75.3,29.88,South,188,6.0,7.0,72,0.00,,,0.00,Wunderground v.1.15,2013-06-23 19:03:00,
2013-06-23 14:08:00,84.9,74.4,29.88,South,186,6.0,9.0,71,0.00,,,0.00,Wunderground v.1.15,2013-06-23 19:08:00,
2013-06-23 14:14:00,84.7,74.7,29.86,South,169,7.0,8.0,72,0.00,,,0.00,Wunderground v.1.15,2013-06-23 19:14:00,
2013-06-23 14:19:00,84.0,74.4,29.88,WSW,258,7.0,11.0,73,0.00,,,0.00,Wunderground v.1.15,2013-06-23 19:19:00,
2013-06-23 14:25:00,80.4,69.3,29.88,WSW,254,8.0,16.0,69,0.00,,,0.00,Wunderground v.1.15,2013-06-23 19:25:00,
2013-06-23 14:31:00,78.5,70.3,29.90,West,278,9.0,9.0,76,1.75,,,0.06,Wunderground v.1.15,2013-06-23 19:31:00,
2013-06-23 14:37:00,73.8,69.0,29.90,West,273,8.0,18.0,85,1.39,,,0.24,Wunderground v.1.15,2013-06-23 19:37:00,
2013-06-23 14:43:00,71.9,68.8,29.91,SW,229,6.0,8.0,90,1.15,,,0.31,Wunderground v.1.15,2013-06-23 19:43:00,
2013-06-23 14:49:00,71.0,68.2,29.92,SW,222,3.0,8.0,91,1.39,,,0.45,Wunderground v.1.15,2013-06-23 19:49:00,
2013-06-23 14:54:00,70.7,68.9,29.92,SW,218,2.0,5.0,94,0.17,,,0.48,Wunderground v.1.15,2013-06-23 19:54:00,
2013-06-23 14:59:00,70.6,69.1,29.92,South,175,5.0,9.0,95,0.66,,,0.54,Wunderground v.1.15,2013-06-23 19:59:00,
2013-06-23 15:04:00,70.7,69.5,29.92,SW,215,8.0,12.0,96,0.13,,,0.55,Wunderground v.1.15,2013-06-23 20:04:00,
2013-06-23 15:10:00,70.6,69.7,29.92,SSW,198,8.0,8.0,97,0.09,,,0.56,Wunderground v.1.15,2013-06-23 20:10:00,
2013-06-23 15:16:00,70.5,69.6,29.90,South,188,6.0,8.0,97,0.06,,,0.56,Wunderground v.1.15,2013-06-23 20:16:00,
2013-06-23 15:22:00,70.3,69.4,29.89,South,188,2.0,3.0,97,0.06,,,0.57,Wunderground v.1.15,2013-06-23 20:22:00,
2013-06-23 15:28:00,70.3,69.4,29.88,South,184,1.0,6.0,97,0.06,,,0.57,Wunderground v.1.15,2013-06-23 20:28:00,
2013-06-23 15:33:00,70.2,69.3,29.87,SSW,194,4.0,8.0,97,0.04,,,0.57,Wunderground v.1.15,2013-06-23 20:33:00,
2013-06-23 15:38:00,70.1,69.2,29.86,South,170,5.0,8.0,97,0.00,,,0.57,Wunderground v.1.15,2013-06-23 20:38:00,
2013-06-23 15:43:00,70.0,69.1,29.86,South,170,4.0,5.0,97,0.00,,,0.57,Wunderground v.1.15,2013-06-23 20:43:00,
2013-06-23 15:48:00,70.0,69.1,29.86,SE,139,2.0,5.0,97,0.00,,,0.57,Wunderground v.1.15,2013-06-23 20:48:00,
2013-06-23 15:53:00,70.0,69.1,29.85,SE,141,2.0,4.0,97,0.00,,,0.57,Wunderground v.1.15,2013-06-23 20:53:00,
2013-06-23 15:59:00,70.0,68.8,29.84,SSE,155,3.0,5.0,96,0.00,,,0.57,Wunderground v.1.15,2013-06-23 20:59:00,
2013-06-23 16:05:00,70.1,68.6,29.84,South,169,4.0,8.0,95,0.00,,,0.57,Wunderground v.1.15,2013-06-23 21:05:00,
2013-06-23 16:11:00,70.2,68.7,29.83,SE,134,3.0,3.0,95,0.00,,,0.57,Wunderground v.1.15,2013-06-23 21:11:00,
2013-06-23 16:16:00,70.3,68.8,29.83,SE,139,2.0,6.0,95,0.00,,,0.57,Wunderground v.1.15,2013-06-23 21:16:00,
2013-06-23 16:21:00,70.5,69.3,29.84,ESE,107,2.0,2.0,96,0.00,,,0.57,Wunderground v.1.15,2013-06-23 21:21:00,
2013-06-23 16:27:00,70.7,69.5,29.84,SSE,151,2.0,5.0,96,0.00,,,0.57,Wunderground v.1.15,2013-06-23 21:27:00,
2013-06-23 16:33:00,70.9,69.7,29.84,SSE,151,0.0,1.0,96,0.00,,,0.57,Wunderground v.1.15,2013-06-23 21:33:00,
2013-06-23 16:39:00,71.2,70.0,29.84,SSE,151,0.0,1.0,96,0.00,,,0.57,Wunderground v.1.15,2013-06-23 21:39:00,
2013-06-23 16:44:00,71.5,70.3,29.84,SSE,151,0.0,0.0,96,0.00,,,0.57,Wunderground v.1.15,2013-06-23 21:44:00,
2013-06-23 16:49:00,71.8,70.6,29.85,SSE,151,0.0,0.0,96,0.00,,,0.57,Wunderground v.1.15,2013-06-23 21:49:00,
2013-06-23 16:54:00,72.1,70.9,29.85,SSE,151,0.0,1.0,96,0.00,,,0.57,Wunderground v.1.15,2013-06-23 21:54:00,
2013-06-23 17:00:00,72.3,71.1,29.86,SSE,151,0.0,0.0,96,0.00,,,0.57,Wunderground v.1.15,2013-06-23 22:00:00,
2013-06-23 17:06:00,72.5,71.3,29.87,SSE,151,0.0,2.0,96,0.00,,,0.57,Wunderground v.1.15,2013-06-23 22:06:00,
2013-06-23 17:11:00,72.8,71.3,29.88,ESE,121,2.0,3.0,95,0.00,,,0.57,Wunderground v.1.15,2013-06-23 22:11:00,
2013-06-23 17:17:00,72.9,71.1,29.90,ESE,121,3.0,4.0,94,0.00,,,0.57,Wunderground v.1.15,2013-06-23 22:17:00,
2013-06-23 17:22:00,73.1,71.3,29.90,ESE,121,1.0,2.0,94,0.00,,,0.57,Wunderground v.1.15,2013-06-23 22:22:00,
2013-06-23 17:27:00,73.4,71.9,29.90,SE,130,1.0,4.0,95,0.00,,,0.57,Wunderground v.1.15,2013-06-23 22:27:00,
2013-06-23 17:33:00,73.5,71.7,29.89,SSE,148,3.0,6.0,94,0.00,,,0.57,Wunderground v.1.15,2013-06-23 22:33:00,
2013-06-23 17:39:00,73.5,70.7,29.89,South,187,5.0,10.0,91,0.00,,,0.57,Wunderground v.1.15,2013-06-23 22:39:00,
2013-06-23 17:45:00,73.7,70.6,29.90,SE,146,6.0,13.0,90,0.00,,,0.57,Wunderground v.1.15,2013-06-23 22:45:00,
2013-06-23 17:50:00,73.7,70.3,29.90,SE,143,6.0,6.0,89,0.00,,,0.57,Wunderground v.1.15,2013-06-23 22:50:00,
2013-06-23 17:56:00,73.7,70.3,29.90,South,175,6.0,10.0,89,0.00,,,0.57,Wunderground v.1.15,2013-06-23 22:56:00,
2013-06-23 18:01:00,73.7,69.9,29.90,South,171,6.0,6.0,88,0.00,,,0.57,Wunderground v.1.15,2013-06-23 23:01:00,
2013-06-23 18:07:00,73.7,70.3,29.90,SSE,159,6.0,8.0,89,0.00,,,0.57,Wunderground v.1.15,2013-06-23 23:07:00,
2013-06-23 18:13:00,73.9,70.1,29.90,South,181,6.0,6.0,88,0.00,,,0.57,Wunderground v.1.15,2013-06-23 23:13:00,
2013-06-23 18:18:00,74.3,70.2,29.90,South,183,7.0,12.0,87,0.00,,,0.57,Wunderground v.1.15,2013-06-23 23:18:00,
2013-06-23 18:23:00,74.7,70.2,29.90,SSE,165,7.0,10.0,86,0.00,,,0.57,Wunderground v.1.15,2013-06-23 23:23:00,
2013-06-23 18:28:00,74.9,70.4,29.90,SSW,204,8.0,12.0,86,0.00,,,0.57,Wunderground v.1.15,2013-06-23 23:28:00,
2013-06-23 18:34:00,74.9,70.4,29.90,South,182,9.0,10.0,86,0.00,,,0.57,Wunderground v.1.15,2013-06-23 23:34:00,
2013-06-23 18:39:00,74.9,70.4,29.90,South,184,8.0,10.0,86,0.00,,,0.57,Wunderground v.1.15,2013-06-23 23:39:00,
2013-06-23 18:45:00,74.9,70.4,29.90,SSW,195,7.0,10.0,86,0.00,,,0.57,Wunderground v.1.15,2013-06-23 23:45:00,
2013-06-23 18:50:00,74.8,70.3,29.90,South,190,6.0,6.0,86,0.00,,,0.57,Wunderground v.1.15,2013-06-23 23:50:00,
2013-06-23 18:56:00,74.8,70.3,29.91,SSW,208,6.0,10.0,86,0.00,,,0.57,Wunderground v.1.15,2013-06-23 23:56:00,
2013-06-23 19:01:00,74.9,70.4,29.91,SSW,199,7.0,9.0,86,0.00,,,0.57,Wunderground v.1.15,2013-06-24 00:01:00,
2013-06-23 19:07:00,74.9,70.1,29.91,SSW,195,6.0,9.0,85,0.00,,,0.57,Wunderground v.1.15,2013-06-24 00:07:00,
2013-06-23 19:12:00,74.9,70.1,29.91,South,189,6.0,7.0,85,0.00,,,0.57,Wunderground v.1.15,2013-06-24 00:12:00,
2013-06-23 19:18:00,75.1,70.6,29.91,South,172,6.0,8.0,86,0.00,,,0.57,Wunderground v.1.15,2013-06-24 00:18:00,
2013-06-23 19:24:00,75.2,70.7,29.91,South,169,6.0,6.0,86,0.00,,,0.57,Wunderground v.1.15,2013-06-24 00:24:00,
2013-06-23 19:30:00,75.1,70.3,29.91,South,182,5.0,5.0,85,0.00,,,0.57,Wunderground v.1.15,2013-06-24 00:30:00,
2013-06-23 19:36:00,75.1,70.6,29.91,South,182,4.0,5.0,86,0.00,,,0.57,Wunderground v.1.15,2013-06-24 00:36:00,
2013-06-23 19:42:00,74.9,70.4,29.92,SSW,204,4.0,5.0,86,0.00,,,0.57,Wunderground v.1.15,2013-06-24 00:42:00,
2013-06-23 19:48:00,74.6,70.5,29.92,South,190,4.0,5.0,87,0.00,,,0.57,Wunderground v.1.15,2013-06-24 00:48:00,
2013-06-23 19:54:00,74.3,70.2,29.92,South,182,4.0,4.0,87,0.00,,,0.57,Wunderground v.1.15,2013-06-24 00:54:00,
2013-06-23 19:59:00,74.0,70.2,29.92,South,182,3.0,5.0,88,0.00,,,0.57,Wunderground v.1.15,2013-06-24 00:59:00,
2013-06-23 20:05:00,73.7,69.9,29.92,South,182,3.0,4.0,88,0.00,,,0.57,Wunderground v.1.15,2013-06-24 01:05:00,
2013-06-23 20:11:00,73.5,70.1,29.92,SSW,207,3.0,4.0,89,0.00,,,0.57,Wunderground v.1.15,2013-06-24 01:11:00,
2013-06-23 20:17:00,73.3,69.9,29.92,South,186,4.0,6.0,89,0.00,,,0.57,Wunderground v.1.15,2013-06-24 01:17:00,
2013-06-23 20:23:00,73.1,69.7,29.92,SSW,209,5.0,5.0,89,0.00,,,0.57,Wunderground v.1.15,2013-06-24 01:23:00,
2013-06-23 20:29:00,72.9,69.5,29.92,SSW,209,4.0,5.0,89,0.00,,,0.57,Wunderground v.1.15,2013-06-24 01:29:00,
2013-06-23 20:35:00,72.7,69.6,29.92,SSW,209,3.0,5.0,90,0.00,,,0.57,Wunderground v.1.15,2013-06-24 01:35:00,
2013-06-23 20:41:00,72.5,69.4,29.92,SSW,209,3.0,3.0,90,0.00,,,0.57,Wunderground v.1.15,2013-06-24 01:41:00,
2013-06-23 20:46:00,72.4,69.3,29.92,SSW,209,3.0,3.0,90,0.00,,,0.57,Wunderground v.1.15,2013-06-24 01:46:00,
2013-06-23 20:52:00,72.1,69.3,29.92,SSW,209,3.0,4.0,91,0.00,,,0.57,Wunderground v.1.15,2013-06-24 01:52:00,
2013-06-23 20:58:00,71.9,69.4,29.92,SSW,209,4.0,6.0,92,0.00,,,0.57,Wunderground v.1.15,2013-06-24 01:58:00,
2013-06-23 21:03:00,71.8,69.3,29.92,SSW,209,3.0,5.0,92,0.00,,,0.57,Wunderground v.1.15,2013-06-24 02:03:00,
2013-06-23 21:09:00,71.7,69.3,29.92,SSW,209,3.0,5.0,92,0.00,,,0.57,Wunderground v.1.15,2013-06-24 02:09:00,
2013-06-23 21:14:00,71.5,69.4,29.92,SSW,209,3.0,5.0,93,0.00,,,0.57,Wunderground v.1.15,2013-06-24 02:14:00,
2013-06-23 21:20:00,71.4,69.3,29.93,SSW,209,3.0,5.0,93,0.00,,,0.57,Wunderground v.1.15,2013-06-24 02:20:00,
2013-06-23 21:26:00,71.3,69.5,29.93,SSW,209,3.0,5.0,94,0.00,,,0.57,Wunderground v.1.15,2013-06-24 02:26:00,
2013-06-23 21:32:00,71.2,69.4,29.93,SSW,209,2.0,2.0,94,0.00,,,0.57,Wunderground v.1.15,2013-06-24 02:32:00,
2013-06-23 21:38:00,71.0,69.2,29.93,SSW,209,1.0,2.0,94,0.00,,,0.57,Wunderground v.1.15,2013-06-24 02:38:00,
2013-06-23 21:44:00,70.9,69.1,29.93,SSW,209,1.0,4.0,94,0.00,,,0.57,Wunderground v.1.15,2013-06-24 02:44:00,
2013-06-23 21:50:00,70.7,69.2,29.93,SSW,209,3.0,3.0,95,0.00,,,0.57,Wunderground v.1.15,2013-06-24 02:50:00,
2013-06-23 21:56:00,70.6,69.1,29.93,SSW,206,4.0,6.0,95,0.00,,,0.57,Wunderground v.1.15,2013-06-24 02:56:00,
2013-06-23 22:01:00,70.6,69.4,29.93,South,188,5.0,5.0,96,0.00,,,0.57,Wunderground v.1.15,2013-06-24 03:01:00,
2013-06-23 22:07:00,70.6,69.4,29.93,SSE,168,5.0,5.0,96,0.00,,,0.57,Wunderground v.1.15,2013-06-24 03:07:00,
2013-06-23 22:13:00,70.6,69.4,29.93,South,178,5.0,7.0,96,0.00,,,0.57,Wunderground v.1.15,2013-06-24 03:13:00,
2013-06-23 22:19:00,70.4,69.2,29.94,South,180,5.0,7.0,96,0.00,,,0.57,Wunderground v.1.15,2013-06-24 03:19:00,
2013-06-23 22:25:00,70.4,69.2,29.94,South,186,6.0,8.0,96,0.00,,,0.57,Wunderground v.1.15,2013-06-24 03:25:00,
2013-06-23 22:31:00,70.3,69.1,29.94,South,171,6.0,6.0,96,0.00,,,0.57,Wunderground v.1.15,2013-06-24 03:31:00,
2013-06-23 22:37:00,70.2,69.0,29.94,South,177,6.0,6.0,96,0.00,,,0.57,Wunderground v.1.15,2013-06-24 03:37:00,
2013-06-23 22:42:00,70.1,69.2,29.95,South,180,6.0,8.0,97,0.00,,,0.57,Wunderground v.1.15,2013-06-24 03:42:00,
2013-06-23 22:48:00,70.1,69.2,29.95,South,180,6.0,8.0,97,0.00,,,0.57,Wunderground v.1.15,2013-06-24 03:48:00,
2013-06-23 22:54:00,70.0,69.1,29.95,South,180,5.0,9.0,97,0.00,,,0.57,Wunderground v.1.15,2013-06-24 03:54:00,
2013-06-23 23:00:00,69.8,68.9,29.95,South,180,5.0,5.0,97,0.00,,,0.57,Wunderground v.1.15,2013-06-24 04:00:00,
2013-06-23 23:01:00,69.8,68.9,29.95,South,180,5.0,5.0,97,0.00,,,0.57,Wunderground v.1.15,2013-06-24 04:01:00,
2013-06-23 23:02:00,69.8,68.9,29.95,South,180,5.0,5.0,97,0.00,,,0.57,Wunderground v.1.15,2013-06-24 04:02:00,
2013-06-23 23:03:00,69.8,68.9,29.95,South,180,5.0,5.0,97,0.00,,,0.57,Wunderground v.1.15,2013-06-24 04:03:00,
2013-06-23 23:04:00,69.8,68.9,29.95,South,175,5.0,5.0,97,0.00,,,0.57,Wunderground v.1.15,2013-06-24 04:04:00,
2013-06-23 23:05:00,69.7,68.8,29.95,South,175,5.0,5.0,97,0.00,,,0.57,Wunderground v.1.15,2013-06-24 04:05:00,
2013-06-23 23:11:00,69.7,68.8,29.95,South,175,5.0,6.0,97,0.00,,,0.57,Wunderground v.1.15,2013-06-24 04:11:00,
2013-06-23 23:16:00,69.6,69.0,29.95,South,175,5.0,6.0,98,0.00,,,0.57,Wunderground v.1.15,2013-06-24 04:16:00,
2013-06-23 23:21:00,69.5,68.9,29.95,South,175,4.0,5.0,98,0.00,,,0.57,Wunderground v.1.15,2013-06-24 04:21:00,
2013-06-23 23:27:00,69.5,68.9,29.95,South,175,4.0,7.0,98,0.00,,,0.57,Wunderground v.1.15,2013-06-24 04:27:00,
2013-06-23 23:32:00,69.4,68.8,29.95,South,175,4.0,6.0,98,0.00,,,0.57,Wunderground v.1.15,2013-06-24 04:32:00,
2013-06-23 23:38:00,69.4,68.8,29.95,South,175,5.0,7.0,98,0.00,,,0.57,Wunderground v.1.15,2013-06-24 04:38:00,
2013-06-23 23:43:00,69.4,69.1,29.95,South,175,5.0,5.0,99,0.00,,,0.57,Wunderground v.1.15,2013-06-24 04:43:00,
2013-06-23 23:49:00,69.4,69.1,29.95,South,175,6.0,8.0,99,0.00,,,0.57,Wunderground v.1.15,2013-06-24 04:49:00,
2013-06-23 23:55:00,69.4,69.1,29.95,South,188,6.0,10.0,99,0.00,,,0.57,Wunderground v.1.15,2013-06-24 04:55:00,